Weather History for Provincetown, MA

Change the Weather History Date:

Monday, June 17, 2013

  Actual Average Record
Temperature  
Mean Temperature 70 °F -  
Max Temperature 80 °F 69 °F 84 °F (2006)
Min Temperature 60 °F 55 °F 48 °F (2003)
Cooling Degree Days 5    
Growing Degree Days 20 (Base 50)    
Moisture  
Dew Point 61 °F    
Average Humidity 79    
Maximum Humidity 94    
Minimum Humidity 54    
Precipitation  
Precipitation 0.19 in - - ()
Sea Level Pressure  
Sea Level Pressure 29.86 in    
Wind  
Wind Speed 10 mph (SW)    
Max Wind Speed 21 mph    
Max Gust Speed 29 mph    
Visibility 10 miles    
Events Thunderstorm    
Averages and records for this station are not official NWS values.
T = Trace of Precipitation, MM = Missing Value Source: NWS Daily Summary

Daily Weather History Graph

Daily Weather History Graph

Search for Another Location

Airport:

Trip Planner

Search our weather history database for the weather conditions in past years. The results will help you decide how hot, cold, wet, or windy it might be!

Date:

Astronomy

Jun. 17, 2013 Rise Set
Actual Time 5:04 AM EDT 8:19 PM EDT
Civil Twilight 4:30 AM EDT 8:53 PM EDT
Nautical Twilight 3:45 AM EDT 9:38 PM EDT
Astronomical Twilight 2:51 AM EDT 10:32 PM EDT
Moon 1:49 PM EDT (6/17) 12:44 AM EDT (6/17)
Length of Visible Light 16h 23m
Length of Day
15h 14m
First Quarter, 60% of the Moon is Illuminated
Jun 17
First Quarter
Jun 23
Full
Jun 30
Last Quarter
Jul 8
New
Jul 15
First Quarter

Hourly Weather History & Observations

Time (EDT) Temp. Heat Index Dew Point Humidity Pressure Visibility Wind Dir Wind Speed Gust Speed Precip Events Conditions
12:15 AM 60.8 °F - 59.0 °F 94% 29.79 in 7.0 mi SW 8.1 mph - N/A   Clear
12:35 AM 60.8 °F - 59.0 °F 94% 29.79 in 7.0 mi SW 9.2 mph - N/A   Clear
12:55 AM 60.8 °F - 59.0 °F 94% 29.79 in 7.0 mi SW 8.1 mph - N/A   Clear
1:15 AM 60.8 °F - 57.2 °F 88% 29.79 in 8.0 mi WSW 9.2 mph - N/A   Clear
1:35 AM 62.6 °F - 60.8 °F 94% 29.79 in 9.0 mi WSW 9.2 mph - N/A   Clear
1:55 AM 62.6 °F - 60.8 °F 94% 29.80 in 9.0 mi West 10.4 mph - N/A   Clear
2:15 AM 62.6 °F - 60.8 °F 94% 29.81 in 10.0 mi West 12.7 mph 18.4 mph N/A   Clear
2:35 AM 62.6 °F - 60.8 °F 94% 29.81 in 10.0 mi West 11.5 mph - N/A   Clear
2:55 AM 62.6 °F - 59.0 °F 88% 29.81 in 10.0 mi West 10.4 mph - N/A   Clear
3:15 AM 62.6 °F - 59.0 °F 88% 29.82 in 10.0 mi West 11.5 mph - N/A   Clear
3:35 AM 62.6 °F - 59.0 °F 88% 29.82 in 10.0 mi West 11.5 mph - N/A   Clear
3:55 AM 62.6 °F - 59.0 °F 88% 29.82 in 10.0 mi West 10.4 mph - N/A   Clear
4:15 AM 62.6 °F - 59.0 °F 88% 29.83 in 10.0 mi West 10.4 mph - N/A   Clear
4:35 AM 60.8 °F - 57.2 °F 88% 29.83 in 10.0 mi West 10.4 mph - N/A   Clear
4:55 AM 60.8 °F - 57.2 °F 88% 29.83 in 10.0 mi WSW 9.2 mph - N/A   Clear
5:15 AM 60.8 °F - 57.2 °F 88% 29.84 in 10.0 mi West 8.1 mph - N/A   Clear
5:35 AM 60.8 °F - 59.0 °F 94% 29.84 in 10.0 mi West 8.1 mph - N/A   Clear
5:55 AM 60.8 °F - 57.2 °F 88% 29.85 in 10.0 mi West 6.9 mph - N/A   Clear
6:15 AM 62.6 °F - 59.0 °F 88% 29.85 in 10.0 mi WSW 6.9 mph - N/A   Clear
6:35 AM 62.6 °F - 59.0 °F 88% 29.86 in 10.0 mi West 6.9 mph - N/A   Clear
6:55 AM 64.4 °F - 59.0 °F 83% 29.87 in 10.0 mi West 8.1 mph - N/A   Clear
7:15 AM 64.4 °F - 57.2 °F 77% 29.87 in 10.0 mi West 8.1 mph - N/A   Clear
7:35 AM 66.2 °F - 59.0 °F 78% 29.87 in 10.0 mi West 9.2 mph - N/A   Clear
7:55 AM 66.2 °F - 59.0 °F 78% 29.87 in 10.0 mi WSW 8.1 mph - N/A   Clear
8:15 AM 66.2 °F - 60.8 °F 83% 29.88 in 10.0 mi WSW 10.4 mph - N/A   Clear
8:35 AM 69.8 °F - 60.8 °F 73% 29.87 in 10.0 mi SW 11.5 mph - N/A   Clear
8:55 AM 69.8 °F - 60.8 °F 73% 29.87 in 10.0 mi WSW 12.7 mph - N/A   Clear
9:15 AM 69.8 °F - 60.8 °F 73% 29.87 in 10.0 mi WSW 8.1 mph - N/A   Clear
9:35 AM 71.6 °F - 62.6 °F 73% 29.87 in 10.0 mi WSW 9.2 mph - N/A   Clear
9:55 AM 73.4 °F - 62.6 °F 69% 29.87 in 10.0 mi WSW 10.4 mph - N/A   Clear
10:15 AM 73.4 °F - 62.6 °F 69% 29.87 in 10.0 mi WSW 9.2 mph - N/A   Clear
10:35 AM 73.4 °F - 62.6 °F 69% 29.87 in 10.0 mi SW 11.5 mph - N/A   Clear
10:55 AM 75.2 °F - 62.6 °F 65% 29.87 in 10.0 mi SW 11.5 mph - N/A   Clear
11:15 AM 77.0 °F - 64.4 °F 65% 29.87 in 10.0 mi SW 10.4 mph - N/A   Clear
11:35 AM 77.0 °F - 64.4 °F 65% 29.87 in 10.0 mi SSW 11.5 mph - N/A   Clear
11:55 AM 78.8 °F - 64.4 °F 61% 29.86 in 10.0 mi SSW 10.4 mph - N/A   Clear
12:15 PM 78.8 °F - 64.4 °F 61% 29.86 in 10.0 mi SSW 11.5 mph - N/A   Clear
12:35 PM 78.8 °F - 62.6 °F 57% 29.86 in 10.0 mi South 11.5 mph - N/A   Clear
12:55 PM 78.8 °F - 62.6 °F 57% 29.85 in 10.0 mi SSW 15.0 mph 19.6 mph N/A   Clear
1:15 PM 80.6 °F 81.8 °F 62.6 °F 54% 29.85 in 10.0 mi SSW 15.0 mph - N/A   Clear
1:35 PM 80.6 °F 81.8 °F 62.6 °F 54% 29.85 in 10.0 mi SSW 15.0 mph 21.9 mph N/A   Clear
1:55 PM 78.8 °F - 62.6 °F 57% 29.85 in 10.0 mi SSW 13.8 mph - N/A   Clear
2:15 PM 78.8 °F - 62.6 °F 57% 29.85 in 10.0 mi SSW 16.1 mph 20.7 mph N/A   Clear
2:35 PM 77.0 °F - 62.6 °F 61% 29.85 in 10.0 mi SSW 17.3 mph 23.0 mph N/A   Clear
2:55 PM 75.2 °F - 62.6 °F 65% 29.84 in 10.0 mi SSW 16.1 mph 24.2 mph N/A   Clear
3:15 PM 75.2 °F - 62.6 °F 65% 29.84 in 10.0 mi SSW 17.3 mph 23.0 mph N/A   Clear
3:35 PM 77.0 °F - 62.6 °F 61% 29.83 in 10.0 mi SSW 18.4 mph 25.3 mph N/A   Clear
3:55 PM 75.2 °F - 62.6 °F 65% 29.82 in 10.0 mi SSW 16.1 mph 24.2 mph N/A   Clear
4:15 PM 75.2 °F - 60.8 °F 61% 29.82 in 10.0 mi SW 18.4 mph 24.2 mph N/A   Clear
4:35 PM 73.4 °F - 60.8 °F 65% 29.82 in 10.0 mi SW 17.3 mph 23.0 mph N/A   Clear
4:55 PM 73.4 °F - 60.8 °F 65% 29.83 in 10.0 mi SW 20.7 mph 28.8 mph N/A   Clear
5:15 PM 75.2 °F - 60.8 °F 61% 29.82 in 10.0 mi SW 19.6 mph 25.3 mph N/A   Clear
5:35 PM 73.4 °F - 60.8 °F 65% 29.82 in 10.0 mi SSW 15.0 mph 24.2 mph N/A   Clear
5:55 PM 73.4 °F - 62.6 °F 69% 29.82 in 10.0 mi SSW 19.6 mph 25.3 mph N/A   Clear
6:15 PM 71.6 °F - 62.6 °F 73% 29.82 in 10.0 mi SSW 16.1 mph 21.9 mph N/A   Clear
6:35 PM 68.0 °F - 60.8 °F 78% 29.86 in 10.0 mi SW 13.8 mph 19.6 mph N/A   Scattered Clouds
6:55 PM 68.0 °F - 57.2 °F 68% 29.88 in 10.0 mi ENE 10.4 mph - N/A Thunderstorm Mostly Cloudy
7:15 PM 62.6 °F - 57.2 °F 82% 29.95 in 3.0 mi NNW 12.7 mph 24.2 mph 0.03 in Thunderstorm Mostly Cloudy
7:35 PM 60.8 °F - 59.0 °F 94% 29.93 in 3.0 mi North 6.9 mph - 0.11 in Thunderstorm Overcast
7:55 PM 62.6 °F - 59.0 °F 88% 29.94 in 5.0 mi NNW 6.9 mph - 0.13 in   Overcast
8:15 PM 62.6 °F - 60.8 °F 94% 29.93 in 10.0 mi North 3.5 mph - 0.04 in   Overcast
8:35 PM 62.6 °F - 60.8 °F 94% 29.92 in 10.0 mi Calm Calm - 0.05 in   Overcast
8:55 PM 62.6 °F - 60.8 °F 94% 29.91 in 10.0 mi NE 3.5 mph - 0.05 in   Overcast
9:15 PM 62.6 °F - 60.8 °F 94% 29.92 in 10.0 mi SSE 3.5 mph - N/A   Overcast
9:35 PM 62.6 °F - 60.8 °F 94% 29.90 in 10.0 mi SSE 3.5 mph - N/A   Mostly Cloudy
9:55 PM 62.6 °F - 60.8 °F 94% 29.91 in 10.0 mi South 6.9 mph - N/A   Partly Cloudy
10:15 PM 62.6 °F - 60.8 °F 94% 29.90 in 10.0 mi South 8.1 mph - N/A   Partly Cloudy
10:35 PM 60.8 °F - 59.0 °F 94% 29.90 in 10.0 mi SSW 9.2 mph - N/A   Clear
10:55 PM 60.8 °F - 59.0 °F 94% 29.90 in 10.0 mi SSW 8.1 mph - N/A   Clear
11:15 PM 60.8 °F - 59.0 °F 94% 29.91 in 10.0 mi SSW 9.2 mph - N/A   Clear
11:35 PM 60.8 °F - 57.2 °F 88% 29.91 in 10.0 mi SSW 8.1 mph - N/A   Clear
11:55 PM 60.8 °F - 59.0 °F 94% 29.91 in 10.0 mi SSW 9.2 mph - 0.01 in   Clear